OAL114 LIRN-LGAV

Flight info

Callsign OAL114
Flight time 1h 16m
Altitude 37000
Route POLIT DCT EVINO DCT LODPA DCT RUTOM UN604 ARA UB34 NEMES
Aircraft B737/M-VGDW/C

Departure

Time 2026-05-04 12:04
Airport Naples International Airport (LIRN)

Arrival

Time 2026-05-04 13:20
Airport Athens Eleftherios Venizelos International Airport (LGAV)
Time Latitude Longitude Altitude Speed Heading
2026-05-04 11:51 40.87862 14.28156 302 ft 0 kts 147°
2026-05-04 11:52 40.87868 14.28150 302 ft 2 kts 147°
2026-05-04 11:52 40.87883 14.28138 302 ft 3 kts 147°
2026-05-04 11:52 40.87899 14.28124 302 ft 3 kts 147°
2026-05-04 11:53 40.87906 14.28118 302 ft 1 kts 147°
2026-05-04 11:53 40.87917 14.28109 302 ft 2 kts 147°
2026-05-04 11:53 40.87923 14.28104 302 ft 0 kts 147°
2026-05-04 11:55 40.88018 14.28526 302 ft 8 kts 53°
2026-05-04 11:55 40.88051 14.28586 302 ft 8 kts 53°
2026-05-04 11:56 40.88082 14.28641 302 ft 7 kts 53°
2026-05-04 11:56 40.88111 14.28694 302 ft 7 kts 53°
2026-05-04 11:56 40.88140 14.28745 302 ft 7 kts 53°
2026-05-04 11:56 40.88168 14.28795 302 ft 7 kts 53°
2026-05-04 11:57 40.88195 14.28844 302 ft 6 kts 53°
2026-05-04 11:57 40.88221 14.28890 302 ft 6 kts 54°
2026-05-04 11:57 40.88247 14.28940 302 ft 7 kts 54°
2026-05-04 11:57 40.88279 14.28998 302 ft 9 kts 54°
2026-05-04 11:58 40.88316 14.29067 302 ft 10 kts 54°
2026-05-04 11:58 40.88359 14.29148 302 ft 11 kts 54°
2026-05-04 11:58 40.88407 14.29238 302 ft 13 kts 54°
2026-05-04 11:58 40.88459 14.29334 302 ft 13 kts 54°
2026-05-04 11:59 40.88509 14.29426 302 ft 12 kts 54°
2026-05-04 11:59 40.88558 14.29515 302 ft 12 kts 54°
2026-05-04 11:59 40.88604 14.29598 302 ft 11 kts 54°
2026-05-04 11:59 40.88649 14.29680 302 ft 11 kts 54°
2026-05-04 12:00 40.88692 14.29758 302 ft 10 kts 54°
2026-05-04 12:00 40.88737 14.29839 302 ft 12 kts 54°
2026-05-04 12:00 40.88788 14.29932 302 ft 13 kts 54°
2026-05-04 12:00 40.88844 14.30034 302 ft 14 kts 54°
2026-05-04 12:01 40.88898 14.30133 302 ft 13 kts 54°
2026-05-04 12:01 40.88939 14.30209 302 ft 8 kts 53°
2026-05-04 12:02 40.89086 14.30098 302 ft 0 kts 238°
2026-05-04 12:03 40.89054 14.30031 302 ft 27 kts 238°
2026-05-04 12:03 40.88857 14.29612 302 ft 78 kts 236°
2026-05-04 12:03 40.88489 14.28834 303 ft 119 kts 237°
2026-05-04 12:04 40.88011 14.27798 466 ft 136 kts 239°
2026-05-04 12:04 40.87538 14.26710 865 ft 138 kts 238°
2026-05-04 12:04 40.87010 14.25675 1278 ft 136 kts 226°
2026-05-04 12:04 40.86206 14.24991 1572 ft 144 kts 199°
2026-05-04 12:05 40.85203 14.24788 1949 ft 148 kts 181°
2026-05-04 12:05 40.84122 14.25005 2259 ft 168 kts 169°
2026-05-04 12:05 40.82912 14.25334 2577 ft 185 kts 169°
2026-05-04 12:05 40.81613 14.25694 3043 ft 194 kts 168°
2026-05-04 12:06 40.80287 14.26061 3720 ft 194 kts 168°
2026-05-04 12:06 40.78963 14.26428 4387 ft 195 kts 168°
2026-05-04 12:06 40.77619 14.26799 5026 ft 197 kts 168°
2026-05-04 12:06 40.76285 14.27167 5667 ft 199 kts 168°
2026-05-04 12:07 40.74921 14.27544 6317 ft 201 kts 168°
2026-05-04 12:07 40.73542 14.27924 6972 ft 204 kts 168°
2026-05-04 12:07 40.72142 14.28311 7621 ft 207 kts 168°
2026-05-04 12:07 40.70725 14.28708 8282 ft 211 kts 167°
2026-05-04 12:08 40.69240 14.29232 8626 ft 232 kts 163°
2026-05-04 12:08 40.67616 14.29884 8932 ft 253 kts 163°
2026-05-04 12:08 40.65876 14.30575 9360 ft 275 kts 163°
2026-05-04 12:08 40.63984 14.31308 9994 ft 288 kts 164°
2026-05-04 12:09 40.62041 14.32052 10818 ft 294 kts 164°
2026-05-04 12:09 40.60026 14.32839 11342 ft 313 kts 161°
2026-05-04 12:09 40.57983 14.34062 11810 ft 331 kts 150°
2026-05-04 12:09 40.56060 14.35801 12550 ft 339 kts 142°
2026-05-04 12:10 40.54246 14.37821 13383 ft 344 kts 139°
2026-05-04 12:10 40.52463 14.39955 14244 ft 350 kts 138°
2026-05-04 12:10 40.50645 14.42117 15120 ft 355 kts 139°
2026-05-04 12:10 40.48787 14.44295 15995 ft 360 kts 139°
2026-05-04 12:11 40.46922 14.46460 16833 ft 365 kts 139°
2026-05-04 12:11 40.44996 14.48683 17666 ft 370 kts 140°
2026-05-04 12:11 40.43043 14.50929 18470 ft 375 kts 140°
2026-05-04 12:11 40.41055 14.53208 19218 ft 382 kts 140°
2026-05-04 12:12 40.39036 14.55522 19953 ft 388 kts 140°
2026-05-04 12:12 40.36999 14.57903 20671 ft 394 kts 139°
2026-05-04 12:12 40.34924 14.60304 21363 ft 400 kts 140°
2026-05-04 12:12 40.32811 14.62727 22030 ft 406 kts 140°
2026-05-04 12:13 40.30695 14.65142 22671 ft 411 kts 140°
2026-05-04 12:14 40.14964 14.82998 26816 ft 442 kts 140°
2026-05-04 12:15 40.12628 14.85645 27228 ft 448 kts 141°
2026-05-04 12:15 40.10246 14.88335 27649 ft 454 kts 141°
2026-05-04 12:15 40.07846 14.91044 28127 ft 458 kts 141°
2026-05-04 12:15 40.05430 14.93768 28614 ft 460 kts 141°
2026-05-04 12:16 40.02994 14.96512 29098 ft 463 kts 141°
2026-05-04 12:16 40.00545 14.99268 29552 ft 466 kts 141°
2026-05-04 12:16 39.98111 15.02005 29910 ft 471 kts 141°
2026-05-04 12:16 39.95607 15.04823 30202 ft 477 kts 141°
2026-05-04 12:17 39.93109 15.07687 30622 ft 479 kts 140°
2026-05-04 12:17 39.90585 15.10547 31022 ft 482 kts 141°
2026-05-04 12:17 39.88040 15.13408 31371 ft 485 kts 141°
2026-05-04 12:17 39.85467 15.16290 31732 ft 488 kts 141°
2026-05-04 12:18 39.82885 15.19176 32056 ft 491 kts 141°
2026-05-04 12:18 39.80291 15.22072 32443 ft 492 kts 141°
2026-05-04 12:18 39.77697 15.24967 32871 ft 491 kts 141°
2026-05-04 12:18 39.75112 15.27849 33343 ft 489 kts 141°
2026-05-04 12:19 39.72604 15.30856 33710 ft 491 kts 136°
2026-05-04 12:19 39.70292 15.34129 34127 ft 490 kts 130°
2026-05-04 12:19 39.68208 15.37629 34515 ft 490 kts 126°
2026-05-04 12:19 39.66250 15.41244 34875 ft 490 kts 124°
2026-05-04 12:20 39.64308 15.44885 35228 ft 490 kts 125°
2026-05-04 12:20 39.62377 15.48475 35568 ft 489 kts 125°
2026-05-04 12:20 39.60423 15.52082 35917 ft 489 kts 125°
2026-05-04 12:20 39.58456 15.55701 36200 ft 490 kts 125°
2026-05-04 12:21 39.56487 15.59312 36532 ft 489 kts 125°
2026-05-04 12:21 39.54547 15.62865 36845 ft 488 kts 125°
2026-05-04 12:21 39.52580 15.66460 37101 ft 489 kts 125°
2026-05-04 12:21 39.50611 15.70081 37241 ft 493 kts 124°
2026-05-04 12:22 39.46673 15.77364 37254 ft 493 kts 125°
2026-05-04 12:22 39.42720 15.84599 37261 ft 489 kts 125°
2026-05-04 12:23 39.38800 15.91743 37268 ft 490 kts 125°
2026-05-04 12:23 39.34840 15.98943 37274 ft 491 kts 125°
2026-05-04 12:24 39.30897 16.06157 37277 ft 490 kts 125°
2026-05-04 12:24 39.26933 16.13315 37269 ft 490 kts 126°
2026-05-04 12:25 39.22976 16.20432 37271 ft 491 kts 125°
2026-05-04 12:25 39.19001 16.27596 37268 ft 491 kts 123°
2026-05-04 12:26 39.15742 16.35312 37264 ft 490 kts 111°
2026-05-04 12:26 39.13568 16.43578 37259 ft 489 kts 104°
2026-05-04 12:27 39.11690 16.51998 37250 ft 488 kts 104°
2026-05-04 12:27 39.09768 16.60398 37240 ft 489 kts 104°
2026-05-04 12:28 39.08153 16.67371 37230 ft 488 kts 104°
2026-05-04 12:28 39.06196 16.75787 37216 ft 488 kts 104°
2026-05-04 12:29 39.04309 16.84137 37201 ft 488 kts 104°
2026-05-04 12:29 39.02377 16.92520 37187 ft 489 kts 104°
2026-05-04 12:30 39.00427 17.00896 37176 ft 489 kts 104°
2026-05-04 12:30 38.98465 17.09272 37171 ft 489 kts 104°
2026-05-04 12:31 38.96509 17.17584 37171 ft 488 kts 104°
2026-05-04 12:31 38.94533 17.25948 37172 ft 488 kts 104°
2026-05-04 12:32 38.91564 17.38460 37173 ft 488 kts 104°
2026-05-04 12:33 38.89586 17.46757 37173 ft 488 kts 104°
2026-05-04 12:33 38.87592 17.55094 37170 ft 488 kts 105°
2026-05-04 12:34 38.85592 17.63421 37170 ft 488 kts 105°
2026-05-04 12:34 38.83588 17.71740 37169 ft 487 kts 105°
2026-05-04 12:35 38.81581 17.80043 37169 ft 487 kts 105°
2026-05-04 12:35 38.79581 17.88287 37169 ft 487 kts 105°
2026-05-04 12:36 38.77560 17.96589 37168 ft 488 kts 105°
2026-05-04 12:36 38.75530 18.04894 37168 ft 487 kts 105°
2026-05-04 12:37 38.73498 18.13185 37168 ft 487 kts 105°
2026-05-04 12:37 38.71474 18.21414 37170 ft 487 kts 105°
2026-05-04 12:38 38.69432 18.29689 37169 ft 487 kts 105°
2026-05-04 12:38 38.67385 18.37953 37169 ft 487 kts 105°
2026-05-04 12:39 38.65333 18.46211 37169 ft 488 kts 105°
2026-05-04 12:39 38.63268 18.54494 37169 ft 488 kts 105°
2026-05-04 12:40 38.61224 18.62722 37169 ft 487 kts 104°
2026-05-04 12:40 38.59172 18.70991 37170 ft 487 kts 105°
2026-05-04 12:41 38.57332 18.79327 37170 ft 487 kts 102°
2026-05-04 12:41 38.55567 18.87630 37165 ft 486 kts 102°
2026-05-04 12:42 38.53781 18.95973 37165 ft 487 kts 102°
2026-05-04 12:42 38.51986 19.04318 37167 ft 487 kts 102°
2026-05-04 12:43 38.50181 19.12670 37168 ft 488 kts 102°
2026-05-04 12:43 38.48429 19.21025 37169 ft 487 kts 101°
2026-05-04 12:44 38.46661 19.29333 37171 ft 487 kts 101°
2026-05-04 12:44 38.44864 19.37690 37173 ft 488 kts 102°
2026-05-04 12:45 38.43058 19.46032 37175 ft 488 kts 101°
2026-05-04 12:45 38.41252 19.54337 37178 ft 488 kts 101°
2026-05-04 12:46 38.39428 19.62685 37185 ft 488 kts 102°
2026-05-04 12:46 38.37595 19.71047 37186 ft 489 kts 102°
2026-05-04 12:47 38.35756 19.79402 37187 ft 489 kts 102°
2026-05-04 12:47 38.33913 19.87745 37188 ft 489 kts 102°
2026-05-04 12:48 38.32075 19.96033 37187 ft 489 kts 102°
2026-05-04 12:48 38.30214 20.04392 37188 ft 489 kts 102°
2026-05-04 12:49 38.28352 20.12730 37190 ft 489 kts 102°
2026-05-04 12:49 38.26493 20.21020 37192 ft 490 kts 102°
2026-05-04 12:50 38.24616 20.29363 37195 ft 490 kts 102°
2026-05-04 12:50 38.22735 20.37690 37197 ft 490 kts 102°
2026-05-04 12:51 38.20848 20.46012 37198 ft 489 kts 102°
2026-05-04 12:51 38.18958 20.54320 37199 ft 489 kts 102°
2026-05-04 12:52 38.17077 20.62561 37198 ft 488 kts 102°
2026-05-04 12:52 38.15175 20.70860 37195 ft 488 kts 102°
2026-05-04 12:53 38.13276 20.79122 37190 ft 487 kts 102°
2026-05-04 12:53 38.11368 20.87390 37185 ft 488 kts 102°
2026-05-04 12:54 38.09452 20.95663 37179 ft 487 kts 102°
2026-05-04 12:54 38.07547 21.03856 37176 ft 487 kts 102°
2026-05-04 12:55 38.05622 21.12111 37174 ft 487 kts 102°
2026-05-04 12:55 38.03693 21.20356 37172 ft 487 kts 102°
2026-05-04 12:56 38.01756 21.28604 37172 ft 487 kts 102°
2026-05-04 12:56 37.99814 21.36843 37171 ft 487 kts 102°
2026-05-04 12:57 37.97877 21.45035 37170 ft 490 kts 102°
2026-05-04 12:57 37.95914 21.53309 37171 ft 489 kts 102°
2026-05-04 12:58 37.93949 21.61561 37171 ft 489 kts 102°
2026-05-04 12:58 37.91977 21.69815 36963 ft 490 kts 102°
2026-05-04 12:58 37.90989 21.73938 36470 ft 487 kts 102°
2026-05-04 12:59 37.90002 21.78049 35691 ft 489 kts 102°
2026-05-04 12:59 37.89018 21.82146 34930 ft 491 kts 102°
2026-05-04 12:59 37.88018 21.86297 34141 ft 494 kts 102°
2026-05-04 12:59 37.87012 21.90472 33323 ft 497 kts 102°
2026-05-04 13:00 37.86015 21.94601 32676 ft 486 kts 102°
2026-05-04 13:00 37.85026 21.98686 32102 ft 484 kts 101°
2026-05-04 13:00 37.84038 22.02766 31516 ft 482 kts 101°
2026-05-04 13:00 37.83057 22.06809 30943 ft 480 kts 101°
2026-05-04 13:01 37.82079 22.10831 30381 ft 478 kts 101°
2026-05-04 13:01 37.81103 22.14839 29811 ft 475 kts 101°
2026-05-04 13:01 37.80144 22.18775 29246 ft 473 kts 101°
2026-05-04 13:01 37.79219 22.22755 28669 ft 469 kts 100°
2026-05-04 13:02 37.78287 22.26706 28092 ft 467 kts 101°
2026-05-04 13:02 37.77339 22.30622 27517 ft 464 kts 101°
2026-05-04 13:02 37.76389 22.34506 26943 ft 460 kts 101°
2026-05-04 13:02 37.75443 22.38358 26372 ft 457 kts 101°
2026-05-04 13:03 37.74517 22.42121 25809 ft 450 kts 101°
2026-05-04 13:03 37.73598 22.45861 25254 ft 443 kts 101°
2026-05-04 13:03 37.72717 22.49569 24743 ft 432 kts 98°
2026-05-04 13:03 37.72253 22.53239 24172 ft 418 kts 86°
2026-05-04 13:04 37.72069 22.56878 23760 ft 412 kts 87°
2026-05-04 13:04 37.71866 22.60456 23279 ft 407 kts 87°
2026-05-04 13:04 37.71665 22.64013 22773 ft 404 kts 87°
2026-05-04 13:04 37.71465 22.67539 22268 ft 396 kts 87°
2026-05-04 13:05 37.71271 22.70967 21404 ft 394 kts 87°
2026-05-04 13:05 37.71074 22.74427 20691 ft 395 kts 88°
2026-05-04 13:05 37.70877 22.77856 20244 ft 387 kts 88°
2026-05-04 13:05 37.70686 22.81190 19706 ft 384 kts 88°
2026-05-04 13:06 37.70492 22.84541 19215 ft 378 kts 88°
2026-05-04 13:06 37.70302 22.87833 18579 ft 377 kts 88°
2026-05-04 13:06 37.70112 22.91113 18021 ft 373 kts 88°
2026-05-04 13:06 37.69922 22.94359 17509 ft 367 kts 89°
2026-05-04 13:07 37.69735 22.97569 16933 ft 364 kts 89°
2026-05-04 13:07 37.69573 23.00754 16385 ft 361 kts 88°
2026-05-04 13:07 37.69408 23.03909 15874 ft 358 kts 89°
2026-05-04 13:07 37.69238 23.07028 15364 ft 356 kts 89°
2026-05-04 13:08 37.69065 23.10100 14851 ft 354 kts 89°
2026-05-04 13:08 37.68889 23.13198 14325 ft 353 kts 90°
2026-05-04 13:08 37.68711 23.16272 13800 ft 350 kts 90°
2026-05-04 13:08 37.68531 23.19336 13273 ft 348 kts 90°
2026-05-04 13:09 37.68352 23.22376 12747 ft 346 kts 90°
2026-05-04 13:09 37.68193 23.25396 12220 ft 343 kts 90°
2026-05-04 13:09 37.68027 23.28400 11693 ft 341 kts 90°
2026-05-04 13:09 37.67853 23.31374 11167 ft 338 kts 91°
2026-05-04 13:10 37.67678 23.34284 10646 ft 327 kts 91°
2026-05-04 13:10 37.67509 23.37036 10349 ft 307 kts 91°
2026-05-04 13:10 37.67348 23.39630 9939 ft 289 kts 91°
2026-05-04 13:10 37.67193 23.42113 9425 ft 278 kts 91°
2026-05-04 13:11 37.67182 23.44538 8803 ft 278 kts 81°
2026-05-04 13:11 37.67588 23.46937 8210 ft 283 kts 72°
2026-05-04 13:11 37.68108 23.49348 7723 ft 284 kts 72°
2026-05-04 13:11 37.68627 23.51764 7309 ft 283 kts 72°
2026-05-04 13:12 37.69130 23.54134 6904 ft 281 kts 72°
2026-05-04 13:12 37.69634 23.56523 6497 ft 280 kts 72°
2026-05-04 13:12 37.70131 23.58890 6093 ft 278 kts 72°
2026-05-04 13:12 37.70626 23.61252 5688 ft 277 kts 72°
2026-05-04 13:13 37.71116 23.63597 5278 ft 275 kts 72°
2026-05-04 13:13 37.71591 23.65870 4877 ft 263 kts 72°
2026-05-04 13:13 37.72055 23.68093 4500 ft 261 kts 72°
2026-05-04 13:13 37.72517 23.70307 4167 ft 258 kts 72°
2026-05-04 13:14 37.72958 23.72417 4063 ft 237 kts 72°
2026-05-04 13:14 37.73367 23.74376 4013 ft 224 kts 72°
2026-05-04 13:14 37.73825 23.76240 3960 ft 221 kts 62°
2026-05-04 13:14 37.74741 23.77728 3954 ft 211 kts 39°
2026-05-04 13:15 37.75887 23.78854 3963 ft 206 kts 33°
2026-05-04 13:15 37.77053 23.79884 3939 ft 204 kts 33°
2026-05-04 13:15 37.78197 23.80928 3768 ft 201 kts 33°
2026-05-04 13:15 37.79296 23.81952 3514 ft 189 kts 34°
2026-05-04 13:16 37.80310 23.82904 3275 ft 179 kts 34°
2026-05-04 13:16 37.81271 23.83810 3049 ft 168 kts 34°
2026-05-04 13:16 37.82190 23.84680 2826 ft 162 kts 34°
2026-05-04 13:16 37.83079 23.85522 2621 ft 157 kts 34°
2026-05-04 13:17 37.83941 23.86338 2417 ft 153 kts 34°
2026-05-04 13:17 37.84511 23.86879 2276 ft 150 kts 35°
2026-05-04 13:17 37.85335 23.87660 2084 ft 146 kts 35°
2026-05-04 13:17 37.86131 23.88415 1887 ft 144 kts 36°
2026-05-04 13:18 37.86924 23.89167 1699 ft 141 kts 36°
2026-05-04 13:18 37.87709 23.89912 1522 ft 139 kts 37°
2026-05-04 13:18 37.88478 23.90642 1328 ft 136 kts 38°
2026-05-04 13:18 37.89229 23.91355 1144 ft 133 kts 39°
2026-05-04 13:19 37.89959 23.92047 967 ft 130 kts 39°
2026-05-04 13:19 37.90671 23.92716 807 ft 128 kts 39°
2026-05-04 13:19 37.91383 23.93410 621 ft 130 kts 39°
2026-05-04 13:19 37.92106 23.94095 460 ft 129 kts 39°
2026-05-04 13:20 37.92819 23.94770 332 ft 126 kts 39°
2026-05-04 13:20 37.93488 23.95407 317 ft 106 kts 39°
2026-05-04 13:20 37.93915 23.95814 316 ft 49 kts 36°
2026-05-04 13:20 37.94060 23.95940 316 ft 6 kts 27°
2026-05-04 13:21 37.94085 23.95955 316 ft 12 kts 24°
2026-05-04 13:21 37.94168 23.95992 316 ft 13 kts 13°
2026-05-04 13:21 37.94252 23.96011 316 ft 12 kts
2026-05-04 13:21 37.94328 23.95987 316 ft 12 kts 302°
2026-05-04 13:22 37.94305 23.95903 316 ft 11 kts 216°
2026-05-04 13:22 37.94244 23.95846 316 ft 11 kts 217°
2026-05-04 13:22 37.94186 23.95790 316 ft 10 kts 217°
2026-05-04 13:22 37.94130 23.95737 316 ft 10 kts 217°
2026-05-04 13:23 37.94077 23.95686 316 ft 9 kts 217°
2026-05-04 13:23 37.94022 23.95633 316 ft 11 kts 217°
2026-05-04 13:23 37.93953 23.95567 316 ft 13 kts 217°
2026-05-04 13:23 37.93875 23.95492 316 ft 14 kts 217°
2026-05-04 13:24 37.93797 23.95419 316 ft 13 kts 216°
2026-05-04 13:24 37.93724 23.95351 316 ft 13 kts 216°
2026-05-04 13:24 37.93657 23.95286 316 ft 10 kts 234°
2026-05-04 13:25 37.93697 23.95143 316 ft 9 kts 308°
2026-05-04 13:25 37.93743 23.95098 316 ft 8 kts 329°
2026-05-04 13:25 37.93777 23.95047 316 ft 6 kts 306°
2026-05-04 13:25 37.93794 23.95018 316 ft 0 kts 306°
2026-05-04 13:26 37.93795 23.95018 316 ft 0 kts 306°